This is the latest recevied weather packets stored in our database for station/object KA9CBS. If no packets are shown the sender has not sent any weather packets the latest 10 day(s).
| Time | Temp. | Humidity | Pressure | Rain* | Wind** | Luminosity | Snow |
|---|---|---|---|---|---|---|---|
| 1787692496 | 30° C | 57% | 1018.3 hPa | 0 mm | - | 360 W/m² | - |
| 1787692196 | 30.56° C | 55% | 1018.1 hPa | 0 mm | - | 90 W/m² | - |
| 1787691895 | 30° C | 57% | 1018.2 hPa | 0 mm | - | 472 W/m² | - |
| 1787691594 | 30° C | 57% | 1018.2 hPa | 0 mm | - | 496 W/m² | - |
| 1787691293 | 30° C | 56% | 1018.4 hPa | 0 mm | - | 499 W/m² | - |
| 1787690988 | 30° C | 58% | 1018.5 hPa | 0 mm | - | 522 W/m² | - |
| 1787690688 | 30° C | 56% | 1018.3 hPa | 0 mm | - | 563 W/m² | - |
| 1787690378 | 30.56° C | 58% | 1018.6 hPa | 0 mm | - | 592 W/m² | - |
| 1787690074 | 30.56° C | 55% | 1018.5 hPa | 0 mm | - | 605 W/m² | - |
| 1787689769 | 30.56° C | 56% | 1018.6 hPa | 0 mm | - | 587 W/m² | - |
| 1787689465 | 30.56° C | 55% | 1018.5 hPa | 0 mm | - | 577 W/m² | - |
| 1787689164 | 30.56° C | 56% | 1018.6 hPa | 0 mm | - | 608 W/m² | - |
| 1787688860 | 30° C | 56% | 1018.5 hPa | 0 mm | - | 633 W/m² | - |
| 1787688556 | 30° C | 53% | 1018.7 hPa | 0 mm | - | 621 W/m² | - |
| 1787688256 | 30.56° C | 57% | 1018.4 hPa | 0 mm | - | 620 W/m² | - |
| 1787687951 | 30° C | 55% | 1018.9 hPa | 0 mm | - | 635 W/m² | - |
| 1787687647 | 30° C | 54% | 1018.9 hPa | 0 mm | - | 652 W/m² | - |
| 1787687342 | 30° C | 56% | 1019.1 hPa | 0 mm | - | 638 W/m² | - |
| 1787687037 | 29.44° C | 54% | 1019 hPa | 0 mm | - | 618 W/m² | - |
| 1787686733 | 29.44° C | 53% | 1019 hPa | 0 mm | - | 633 W/m² | - |
| 1787686429 | 30.56° C | 52% | 1018.9 hPa | 0 mm | - | 617 W/m² | - |
| 1787686124 | 30° C | 54% | 1019.2 hPa | 0 mm | - | 640 W/m² | - |
| 1787685820 | 30° C | 54% | 1019.2 hPa | 0 mm | - | 646 W/m² | - |
| 1787685514 | 30° C | 51% | 1019.5 hPa | 0 mm | - | 650 W/m² | - |
| 1787685214 | 30.56° C | 55% | 1019.5 hPa | 0 mm | - | 658 W/m² | - |
* Rain latest hour (hover to see other rain measurements)
** Current wind speed in m/s (hover to see current wind gust speed)